Regional Weather Roundup
Issued by NWS

Home | Current Version | Previous Version | Text Only | Print | Product List | Glossary On
Versions: 1 2 3 4 5 6 7 8 9 10 11 12 13 14 15 16 17 18 19 20 21 22 23 24 25 26 27 28 29 30 31 32 33 34 35 36 37 38 39 40 41 42 43 44 45 46 47 48 49 50
000
ASUS43 KDMX 200607
RWRIA

WEATHER ROUNDUP FOR IOWA
NATIONAL WEATHER SERVICE DES MOINES IA
100 AM CDT MON OCT 20 2014

NOTE: "FAIR" INDICATES FEW OR NO CLOUDS BELOW 12,000 FEET WITH NO
SIGNIFICANT WEATHER AND/OR OBSTRUCTIONS TO VISIBILITY.

* - THESE STATIONS ARE NOT NWS STATIONS...THUS NOT UNDER NWS
QUALITY CONTROL.  THEY ALSO DO NOT REPORT WEATHER SUCH
AS PRECIPITATION OR FOG.

IAZ001>003-012>014-020>022-031>034-043>046-200700-
   NORTHWEST IOWA

CITY           SKY/WX    TMP DP  RH WIND       PRES   REMARKS
CARROLL *      CLEAR     50  46  87 W8        29.93R
CHEROKEE *     CLEAR     41  41  97 CALM      29.96R
DENISON *      CLEAR     46  46 100 CALM      29.94R
LE MARS *      CLEAR     41  39  93 CALM      29.97R
ORANGE CITY *  CLEAR     57  39  51 N8        29.97R
SHELDON *      CLEAR     46  39  76 N8        29.96R
SIOUX CITY     CLEAR     48  45  89 NW6       29.96R
6HR MIN TEMP:  47; 6HR MAX TEMP:  63;

SPENCER        CLEAR     42  38  85 NW9       29.96R
6HR MIN TEMP:  42; 6HR MAX TEMP:  59;

STORM LAKE *   CLEAR     55  43  62 NW9       29.96R
$$

IAZ055>058-069>071-079>083-090>094-200700-
   SOUTHWEST IOWA

CITY           SKY/WX    TMP DP  RH WIND       PRES   REMARKS
ATLANTIC *     CLEAR     46  45  93 CALM      29.95R
AUDUBON *      CLEAR     52  43  71 CALM      29.95R
CLARINDA *     CLEAR     52  46  82 SW6       29.98R
COUNCIL BLFS * PTCLDY    57  50  77 SW8       29.95R
CRESTON *      CLEAR     50  45  81 W7        29.96S
HARLAN  *      MOCLDY    48  46  93 CALM      29.98R
LAMONI         CLEAR     55  47  74 SW13      29.95S
6HR MIN TEMP:  52; 6HR MAX TEMP:  59;

RED OAK *      CLEAR     48  46  93 CALM      29.96S
SHENANDOAH *   CLEAR     50  46  87 W5        29.97S
$$

IAZ047>049-059>061-072>074-084-200700-
   CENTRAL IOWA

CITY           SKY/WX    TMP DP  RH WIND       PRES   REMARKS
AMES           CLEAR     49  44  83 W6        29.90S
6HR MIN TEMP:  49; 6HR MAX TEMP:  58;

ANKENY *       CLEAR     57  48  72 W9G15     29.91S
CHARITON *     CLEAR     54  46  76 SW12      29.93F
DES MOINES     CLEAR     54  46  74 W5        29.92S
6HR MIN TEMP:  54; 6HR MAX TEMP:  62;

GRINNELL*      CLEAR     50  45  81 SW6       29.90F
KNOXVILLE *    CLEAR     54  46  76 SW10      29.90F
MARSHALLTOWN   CLEAR     48  44  86 W8        29.88S
6HR MIN TEMP:  48; 6HR MAX TEMP:  58;

PELLA *        CLEAR     54  47  76 W8        29.91F
PERRY *          N/A     48  46  93 W9        29.92R
$$

IAZ004>006-015-016-023>025-035-036-200700-
   NORTH CENTRAL IOWA

CITY           SKY/WX    TMP DP  RH WIND       PRES   REMARKS
ALGONA *       CLEAR     54  41  62 NW8       29.94R
CLARION *      CLEAR     46  43  87 NW7       29.91R
ESTHERVILLE    CLEAR     45  38  76 NW8       29.95R
6HR MIN TEMP:  45; 6HR MAX TEMP:  59;

FORT DODGE *   CLEAR     52  43  71 NW5       29.93R
MASON CITY     CLEAR     51  42  71 NW12      29.91R
6HR MIN TEMP:  47; 6HR MAX TEMP:  60;

FOREST CITY *  CLEAR     50  43  76 NW7       29.91R
IOWA FALLS *     N/A     48  45  87 W6        29.90R
$$

IAZ007>011-017>019-026>030-037>042-050>054-066-200700-
   NORTHEAST IOWA

CITY           SKY/WX    TMP DP  RH WIND       PRES   REMARKS
CEDAR RAPIDS   CLEAR     51  45  79 SW10      29.86F
6HR MIN TEMP:  50; 6HR MAX TEMP:  56;

CHARLES CITY * CLEAR     48  43  81 W8        29.87R
CLINTON *      CLEAR     48  41  76 SW8       29.88F
DECORAH *      CLEAR     50  45  81 VRB5      29.82S
DUBUQUE        CLEAR     46  42  86 SW9       29.83F
6HR MIN TEMP:  46; 6HR MAX TEMP:  53;

MONTICELLO *   CLEAR     50  45  81 SW5       29.85F
OELWEIN *      CLEAR     46  45  93 W9        29.86S
WATERLOO       CLEAR     50  45  83 W10       29.86S
6HR MIN TEMP:  50; 6HR MAX TEMP:  57;

$$

IAZ064-065-067-068-078-200700-
   EAST CENTRAL IOWA

CITY           SKY/WX    TMP DP  RH WIND       PRES   REMARKS
DAVENPORT      CLEAR     53  42  66 SW14      29.87F
6HR MIN TEMP:  52; 6HR MAX TEMP:  57;

IOWA CITY      CLEAR     50  45  83 W3        29.89F
6HR MIN TEMP:  50; 6HR MAX TEMP:  57;

MT. PLEASANT * CLEAR     48  43  81 SW7       29.91F
MUSCATINE *    CLEAR     55  45  67 SW9G15    29.88F
QUAD CITIES    CLEAR     52  43  71 W9        29.88F
6HR MIN TEMP:  52; 6HR MAX TEMP:  58;

$$

IAZ062-063-075>077-085>089-095>099-200700-
   SOUTHEAST IOWA

CITY           SKY/WX    TMP DP  RH WIND       PRES   REMARKS
BURLINGTON     CLEAR     52  46  80 SW7       29.91F
6HR MIN TEMP:  51; 6HR MAX TEMP:  59;

FAIRFIELD *    CLEAR     50  45  81 SW8       29.90F
FORT MADISON * CLEAR     54  46  76 SW7       29.93F
KEOKUK *       CLEAR     52  46  82 SW9       29.93F
OSKALOOSA *      N/A     52  46  79 W8        29.90F
CENTERVILLE *  CLEAR     52  46  82 SW8       29.95F
OTTUMWA        CLEAR     54  45  71 SW9       29.90F
6HR MIN TEMP:  52; 6HR MAX TEMP:  58;

WASHINGTON *   CLEAR     52  46  82 SW9       29.89F
$$

ABBREVIATIONS USED IN REMARKS
   TC - TEMPERATURES IN CELSIUS
  WCI - WIND CHILL INDEX
   HX - HEAT INDEX
  VSB - VISIBILITY
$$



USA.gov is the U.S. government's official web portal to all federal, state and local government web resources and services.